When you browse on this site, cookies collect data to enhance your experience and personalize the content and advertising you see.
Visit our Privacy Policy to learn more. By continuing to use the site, you agree to this use of cookies and data.
  • In Spain
  • List of Countries
  • For 7 days
  • Water Temperature
  • Weather Map
  • Weather Widgets
  • user-avatar
    Login

    Hourly Weather Cuilapa

    Today, 17 February, Monday

    Time Temperature Precipitation Wind Pressure Humidity
    00:00 +19°C° 0 mm 2 mps 684 mmHg 76%
    01:00 +19°C° 0 mm 2 mps 684 mmHg 78%
    02:00 +19°C° 0 mm 2 mps 684 mmHg 80%
    03:00 +18°C° 0 mm 2 mps 684 mmHg 81%
    04:00 +18°C° 0 mm 2 mps 684 mmHg 81%
    05:00 +18°C° 0 mm 2 mps 684 mmHg 81%
    06:00 +18°C° 0 mm 2 mps 684 mmHg 81%
    07:00 +20°C° 0 mm 2 mps 685 mmHg 69%
    08:00 +24°C° 0 mm 2 mps 686 mmHg 58%
    09:00 +27°C° 0 mm 1 mps 687 mmHg 47%
    10:00 +29°C° 0 mm 2 mps 687 mmHg 40%
    11:00 +31°C° 0 mm 2 mps 687 mmHg 34%
    12:00 +34°C° 0 mm 2 mps 687 mmHg 27%
    13:00 +34°C° 0 mm 3 mps 686 mmHg 29%
    14:00 +33°C° 0 mm 3 mps 685 mmHg 31%
    15:00 +33°C° 0 mm 4 mps 684 mmHg 33%
    16:00 +29°C° 0 mm 3 mps 684 mmHg 43%
    17:00 +27°C° 0 mm 2 mps 684 mmHg 54%
    18:00 +24°C° 0 mm 1 mps 684 mmHg 64%
    19:00 +23°C° 0 mm 1 mps 684 mmHg 67%
    20:00 +21°C° 0 mm 2 mps 684 mmHg 69%
    21:00 +21°C° 0 mm 2 mps 685 mmHg 72%
    22:00 +20°C° 0 mm 2 mps 685 mmHg 72%
    23:00 +20°C° 0 mm 2 mps 684 mmHg 72%

    Tomorrow, 18 February, Tuesday

    Time Temperature Precipitation Wind Pressure Humidity
    00:00 +20°C° 0 mm 2 mps 684 mmHg 72%
    01:00 +20°C° 0 mm 2 mps 684 mmHg 74%
    02:00 +19°C° 0 mm 2 mps 684 mmHg 76%
    03:00 +19°C° 0 mm 2 mps 683 mmHg 78%
    04:00 +19°C° 0 mm 2 mps 683 mmHg 79%
    05:00 +19°C° 0 mm 2 mps 683 mmHg 79%
    06:00 +18°C° 0 mm 2 mps 684 mmHg 80%
    07:00 +21°C° 0 mm 2 mps 685 mmHg 68%
    08:00 +25°C° 0 mm 2 mps 686 mmHg 57%
    09:00 +28°C° 0 mm 2 mps 687 mmHg 46%
    10:00 +30°C° 0 mm 2 mps 687 mmHg 37%
    11:00 +32°C° 0 mm 2 mps 687 mmHg 29%
    12:00 +36°C° 0 mm 2 mps 686 mmHg 21%
    13:00 +35°C° 0 mm 3 mps 686 mmHg 23%
    14:00 +35°C° 0 mm 3 mps 685 mmHg 26%
    15:00 +34°C° 0 mm 3 mps 684 mmHg 28%
    16:00 +31°C° 0 mm 2 mps 684 mmHg 41%
    17:00 +28°C° 0 mm 2 mps 684 mmHg 53%
    18:00 +25°C° 0 mm 1 mps 684 mmHg 65%
    19:00 +24°C° 0 mm 1 mps 684 mmHg 69%
    20:00 +23°C° 0 mm 1 mps 685 mmHg 73%
    21:00 +22°C° 0 mm 1 mps 685 mmHg 77%
    22:00 +21°C° 0 mm 2 mps 685 mmHg 77%
    23:00 +21°C° 0 mm 2 mps 685 mmHg 76%

    Day after tomorrow, 19 February, Wednesday

    Time Temperature Precipitation Wind Pressure Humidity
    00:00 +20°C° 0 mm 2 mps 685 mmHg 75%
    01:00 +20°C° 0 mm 2 mps 685 mmHg 77%
    02:00 +20°C° 0 mm 2 mps 685 mmHg 78%
    03:00 +20°C° 0 mm 2 mps 684 mmHg 79%
    04:00 +20°C° 0 mm 2 mps 685 mmHg 80%
    05:00 +20°C° 0 mm 2 mps 685 mmHg 80%
    06:00 +20°C° 0 mm 2 mps 685 mmHg 81%
    07:00 +23°C° 0 mm 2 mps 686 mmHg 71%
    08:00 +26°C° 0 mm 2 mps 687 mmHg 61%
    09:00 +29°C° 0 mm 2 mps 688 mmHg 51%
    10:00 +31°C° 0 mm 2 mps 688 mmHg 43%
    11:00 +34°C° 0 mm 2 mps 688 mmHg 35%
    12:00 +36°C° 0 mm 2 mps 688 mmHg 27%
    13:00 +35°C° 0 mm 2 mps 687 mmHg 29%
    14:00 +35°C° 0 mm 3 mps 687 mmHg 31%
    15:00 +34°C° 0 mm 3 mps 686 mmHg 33%
    16:00 +31°C° 0 mm 2 mps 685 mmHg 43%
    17:00 +28°C° 0 mm 2 mps 685 mmHg 53%
    18:00 +26°C° 0 mm 1 mps 685 mmHg 63%
    19:00 +25°C° 0 mm 2 mps 685 mmHg 65%
    20:00 +24°C° 0 mm 2 mps 686 mmHg 68%
    21:00 +23°C° 0 mm 2 mps 686 mmHg 70%
    22:00 +23°C° 0 mm 2 mps 686 mmHg 72%
    23:00 +21°C° 0 mm 2 mps 686 mmHg 74%

    20 February, Thursday

    Time Temperature Precipitation Wind Pressure Humidity
    00:00 +21°C° 0 mm 2 mps 686 mmHg 75%
    01:00 +21°C° 0 mm 2 mps 686 mmHg 76%
    02:00 +20°C° 0 mm 3 mps 685 mmHg 77%
    03:00 +20°C° 0 mm 3 mps 685 mmHg 77%
    04:00 +20°C° 0 mm 3 mps 685 mmHg 75%
    05:00 +19°C° 0 mm 3 mps 685 mmHg 73%
    06:00 +19°C° 0 mm 3 mps 686 mmHg 72%
    07:00 +22°C° 0 mm 3 mps 687 mmHg 62%
    08:00 +25°C° 0 mm 3 mps 687 mmHg 52%
    09:00 +28°C° 0 mm 2 mps 688 mmHg 43%
    10:00 +30°C° 0 mm 2 mps 688 mmHg 37%
    11:00 +34°C° 0 mm 2 mps 688 mmHg 31%
    12:00 +36°C° 0 mm 2 mps 689 mmHg 25%
    13:00 +36°C° 0 mm 3 mps 688 mmHg 27%
    14:00 +35°C° 0 mm 3 mps 687 mmHg 29%
    15:00 +34°C° 0 mm 3 mps 686 mmHg 31%
    16:00 +31°C° 0 mm 2 mps 686 mmHg 42%
    17:00 +28°C° 0 mm 2 mps 686 mmHg 53%
    18:00 +25°C° 0 mm 2 mps 685 mmHg 64%
    19:00 +24°C° 0 mm 2 mps 686 mmHg 67%
    20:00 +23°C° 0 mm 2 mps 686 mmHg 70%
    21:00 +21°C° 0 mm 2 mps 687 mmHg 73%
    22:00 +21°C° 0 mm 2 mps 687 mmHg 73%
    23:00 +21°C° 0 mm 2 mps 687 mmHg 72%

    21 February, Friday

    Time Temperature Precipitation Wind Pressure Humidity
    00:00 +20°C° 0 mm 3 mps 687 mmHg 72%
    07:00 +21°C° 0 mm 2 mps 688 mmHg 71%
    08:00 +25°C° 0 mm 2 mps 689 mmHg 61%
    09:00 +27°C° 0 mm 2 mps 689 mmHg 51%
    10:00 +30°C° 0 mm 2 mps 690 mmHg 44%
    11:00 +32°C° 0 mm 2 mps 690 mmHg 37%
    12:00 +35°C° 0 mm 2 mps 690 mmHg 30%
    13:00 +35°C° 0 mm 2 mps 689 mmHg 30%
    14:00 +35°C° 0 mm 3 mps 688 mmHg 30%
    15:00 +34°C° 0 mm 3 mps 688 mmHg 31%
    16:00 +31°C° 0 mm 2 mps 688 mmHg 38%
    17:00 +28°C° 0 mm 2 mps 687 mmHg 45%
    18:00 +26°C° 0 mm 2 mps 687 mmHg 53%
    19:00 +24°C° 0 mm 2 mps 688 mmHg 55%
    20:00 +23°C° 0 mm 2 mps 688 mmHg 57%
    21:00 +21°C° 0 mm 2 mps 688 mmHg 59%
    22:00 +21°C° 0 mm 3 mps 688 mmHg 61%
    23:00 +20°C° 0 mm 3 mps 688 mmHg 64%

    22 February, Saturday

    Time Temperature Precipitation Wind Pressure Humidity
    00:00 +20°C° 0 mm 3 mps 688 mmHg 66%
    01:00 +20°C° 0 mm 3 mps 688 mmHg 68%
    02:00 +19°C° 0 mm 3 mps 687 mmHg 71%
    03:00 +19°C° 0 mm 3 mps 687 mmHg 73%
    04:00 +19°C° 0 mm 3 mps 687 mmHg 74%
    05:00 +19°C° 0 mm 3 mps 687 mmHg 75%
    06:00 +19°C° 0 mm 3 mps 688 mmHg 76%
    07:00 +21°C° 0 mm 3 mps 689 mmHg 66%
    08:00 +24°C° 0 mm 3 mps 689 mmHg 56%
    09:00 +27°C° 0 mm 3 mps 690 mmHg 46%
    10:00 +29°C° 0 mm 3 mps 690 mmHg 39%
    11:00 +31°C° 0 mm 3 mps 690 mmHg 33%
    12:00 +34°C° 0 mm 3 mps 690 mmHg 26%
    13:00 +34°C° 0 mm 3 mps 690 mmHg 27%
    14:00 +34°C° 0 mm 3 mps 689 mmHg 29%
    15:00 +34°C° 0 mm 3 mps 688 mmHg 30%
    16:00 +31°C° 0 mm 2 mps 688 mmHg 38%
    17:00 +28°C° 0 mm 2 mps 688 mmHg 46%
    18:00 +26°C° 0 mm 2 mps 688 mmHg 54%
    19:00 +25°C° 0 mm 2 mps 688 mmHg 58%
    20:00 +23°C° 0 mm 2 mps 688 mmHg 63%
    21:00 +21°C° 0 mm 2 mps 689 mmHg 67%
    22:00 +20°C° 0 mm 2 mps 688 mmHg 70%
    23:00 +20°C° 0 mm 2 mps 688 mmHg 72%
    Show more